Location: Huntsville
(41.2590°N, 111.7678°W)
Time: 07:45:04
(UTC+00:00)

Vanguard 3 - Pass Details

Date: 14 June 2021
Orbit: 508 x 3261 km, 33.4° (Epoch: 29 July)

Event Time Altitude Azimuth Distance (km) Brightness Sun altitude
Rises 19:18:57 0° 264° (W) 3,442 10.4 72.0°
Reaches altitude 10° 19:21:07 10° 257° (WSW) 2,742 10.0 72.0°
Maximum altitude 19:27:29 45° 186° (S) 1,837 10.3 72.0°
Drops below altitude 10° 19:38:31 10° 120° (ESE) 4,680 11.3 71.9°
Sets 19:43:25 0° 115° (ESE) 6,134 11.7 71.7°
